User: anonymous
Location: Girdwood
(60.9430°N, 149.1660°W)
Time: 23:01:57
(UTC-08:00)
Language:

Iridium 86 - Orbit

View from above orbital plane
View from above orbital plane
View from above satellite
View from above satellite

Ground track
Ground track

The orbit data is extracted from the following two-line orbital elements,

1 25528U 98066B   14210.46908923  .00000211  00000-0  68111-4 0   682
2 25528 086.3927 070.3522 0002146 107.6134 252.5296 14.34216982828338
Epoch (UTC): 29 July 2014 11:15:29
Eccentricity: 0.0002146
inclination: 86.3927°
perigee height: 776 km
apogee height: 779 km
right ascension of ascending node: 70.3522°
argument of perigee: 107.6134°
revolutions per day: 14.34216982
mean anomaly at epoch: 252.5296°
orbit number at epoch: 82833

The dashed part of the orbit path shows where the satellite is in the earth's shadow,  

DLR